KG6QHD-13 Weather Reports


time (UTC)temp
C
wind
direction
speed
KPH
gust
KPH
rain 1hr
cm
rain 24hr
cm
rain mn
cm
humidity
%
barometer
mb
20260508025553 12 261 4.8 12.9 0.00 0.13 0.13 35 1018.0
20260508025044 12 276 8.0 16.1 0.00 0.13 0.13 33 1018.0
20260508024558 12 297 6.4 16.1 0.00 0.13 0.13 35 1018.0
20260508024045 12 284 9.7 16.1 0.00 0.13 0.13 35 1017.8
20260508023544 12 290 8.0 12.9 0.00 0.13 0.13 33 1017.8
20260508023051 12 257 6.4 12.9 0.00 0.13 0.13 34 1017.8
20260508022543 12 284 4.8 12.9 0.00 0.13 0.13 35 1017.7
20260508022044 12 240 6.4 12.9 0.00 0.13 0.13 33 1017.6
20260508021556 12 300 4.8 11.3 0.00 0.13 0.13 34 1017.5
20260508021044 12 290 4.8 8.0 0.00 0.13 0.13 35 1017.5
20260508020544 12 287 4.8 11.3 0.00 0.13 0.13 34 1017.4
20260508020051 13 277 4.8 11.3 0.00 0.13 0.13 30 1017.4
20260508015544 13 267 4.8 12.9 0.00 0.13 0.13 30 1017.3
20260508015044 13 263 4.8 12.9 0.00 0.13 0.13 29 1017.2
20260508014555 13 261 6.4 14.5 0.00 0.13 0.13 28 1017.2
20260508014044 13 225 8.0 14.5 0.00 0.13 0.13 28 1017.2
20260508013544 13 250 4.8 11.3 0.00 0.13 0.13 29 1017.2
20260508013052 14 255 4.8 12.9 0.00 0.13 0.13 28 1017.1
20260508012544 14 236 1.6 14.5 0.00 0.13 0.13 28 1017.1
20260508012045 14 235 4.8 14.5 0.00 0.13 0.13 27 1017.0
20260508011552 14 290 4.8 12.9 0.00 0.13 0.13 28 1017.1
20260508011046 14 228 1.6 12.9 0.00 0.13 0.13 32 1017.0
20260508010543 15 176 1.6 12.9 0.00 0.13 0.13 28 1017.0
20260508010054 15 318 3.2 8.0 0.00 0.13 0.13 28 1017.0
20260508005544 15 327 0.0 4.8 0.00 0.13 0.13 32 1017.0
20260508005049 15 209 0.0 4.8 0.00 0.13 0.13 31 1017.0
20260508004555 15 0 0.0 4.8 0.00 0.13 0.13 30 1016.9
20260508004044 15 0 0.0 4.8 0.00 0.13 0.13 32 1016.8
20260508003546 15 218 3.2 4.8 0.00 0.13 0.13 31 1016.8
20260508003052 15 202 0.0 8.0 0.00 0.13 0.13 27 1016.8
20260508002544 15 0 1.6 8.0 0.00 0.13 0.13 26 1016.8
20260508002047 15 231 3.2 6.4 0.00 0.13 0.13 28 1016.8
20260508001551 15 244 3.2 9.7 0.00 0.13 0.13 25 1016.8
20260508001044 15 244 4.8 16.1 0.00 0.13 0.13 25 1016.8
20260508000544 16 188 4.8 16.1 0.00 0.13 0.13 24 1016.8
20260508000053 16 237 1.6 16.1 0.00 0.13 0.13 24 1016.8
20260507235544 16 0 3.2 16.1 0.00 0.15 0.13 25 1016.8
20260507235047 16 0 4.8 16.1 0.00 0.15 0.13 24 1016.7
20260507234551 16 327 8.0 17.7 0.00 0.15 0.13 25 1016.8
20260507234048 16 0 3.2 17.7 0.00 0.15 0.13 26 1016.8
20260507233551 16 199 6.4 22.5 0.00 0.15 0.13 24 1016.8
20260507233056 16 278 8.0 22.5 0.00 0.15 0.13 24 1016.8
20260507232548 16 295 3.2 24.1 0.00 0.15 0.13 24 1017.0
20260507232047 16 306 3.2 24.1 0.00 0.15 0.13 24 1016.8
20260507231555 16 296 11.3 24.1 0.00 0.15 0.13 24 1017.0
20260507231048 16 325 6.4 19.3 0.00 0.15 0.13 23 1016.9
20260507230550 16 328 3.2 20.9 0.00 0.15 0.13 25 1016.8
20260507230053 16 33 8.0 20.9 0.00 0.15 0.13 23 1016.8
20260507225546 16 342 8.0 19.3 0.00 0.18 0.13 23 1017.0
20260507225045 16 292 0.0 19.3 0.00 0.18 0.13 22 1016.8
20260507224558 17 217 9.7 27.4 0.00 0.18 0.13 22 1016.8
20260507224049 17 321 3.2 27.4 0.00 0.18 0.13 25 1016.8
20260507223547 16 201 12.9 27.4 0.00 0.18 0.13 24 1016.9
20260507223052 16 245 11.3 24.1 0.00 0.18 0.13 26 1016.9
20260507222551 16 34 11.3 24.1 0.00 0.18 0.13 25 1017.0
20260507222048 16 352 9.7 19.3 0.00 0.18 0.13 24 1016.8
20260507221551 16 352 1.6 25.7 0.00 0.18 0.13 25 1016.9
20260507221048 16 332 4.8 30.6 0.00 0.18 0.13 24 1017.2
20260507220547 16 342 14.5 30.6 0.00 0.18 0.13 24 1017.0
20260507220056 16 75 16.1 29.0 0.00 0.18 0.13 24 1017.1
20260507215548 16 5 12.9 29.0 0.00 0.18 0.13 24 1017.2
20260507215048 16 22 6.4 41.8 0.00 0.18 0.13 24 1017.1
20260507214603 16 0 4.8 41.8 0.00 0.18 0.13 24 1017.4
20260507214050 16 331 6.4 32.2 0.00 0.18 0.13 25 1017.3
20260507213548 16 352 16.1 32.2 0.00 0.18 0.13 25 1017.3
20260507213057 16 238 12.9 25.7 0.00 0.18 0.13 24 1017.4
20260507212548 16 199 11.3 35.4 0.00 0.18 0.13 25 1017.3
20260507212050 16 266 6.4 45.1 0.00 0.18 0.13 26 1017.5
20260507211556 16 349 19.3 45.1 0.00 0.18 0.13 24 1017.6
20260507211048 16 310 11.3 27.4 0.00 0.18 0.13 27 1017.6
20260507210548 15 296 9.7 27.4 0.00 0.18 0.13 27 1017.4
20260507210058 16 283 6.4 17.7 0.00 0.18 0.13 30 1017.7
20260507205548 15 352 8.0 17.7 0.00 0.18 0.13 31 1017.5
20260507205045 15 32 3.2 17.7 0.00 0.18 0.13 31 1017.5
20260507204558 15 352 8.0 24.1 0.00 0.18 0.13 30 1017.7
20260507204048 15 330 11.3 27.4 0.00 0.18 0.13 31 1017.8
20260507203545 15 257 9.7 27.4 0.00 0.18 0.13 32 1018.0
20260507203103 15 317 8.0 25.7 0.00 0.18 0.13 30 1017.9
20260507202547 15 264 14.5 25.7 0.00 0.18 0.13 29 1018.2
20260507202048 14 216 3.2 12.9 0.00 0.18 0.13 31 1018.0
20260507201558 15 309 3.2 14.5 0.00 0.18 0.13 31 1018.3
20260507201050 13 30 4.8 14.5 0.00 0.18 0.13 32 1018.5
20260507200550 13 45 6.4 17.7 0.00 0.18 0.13 31 1018.5
20260507200105 13 338 6.4 17.7 0.00 0.18 0.13 31 1018.7
20260507195548 13 311 8.0 17.7 0.00 0.18 0.13 32 1018.6
20260507195049 13 329 6.4 27.4 0.00 0.18 0.13 32 1018.7
20260507194554 13 339 9.7 27.4 0.00 0.18 0.13 33 1018.8
20260507194044 13 290 9.7 24.1 0.00 0.18 0.13 32 1018.9
20260507193548 13 352 9.7 17.7 0.00 0.18 0.13 32 1018.8
20260507193058 13 55 6.4 16.1 0.00 0.18 0.13 32 1018.9
20260507192546 13 261 3.2 16.1 0.00 0.18 0.13 33 1019.1
20260507192044 13 138 4.8 14.5 0.00 0.18 0.13 33 1019.1
20260507191551 13 111 1.6 14.5 0.00 0.18 0.13 32 1019.1
20260507191049 13 5 3.2 16.1 0.00 0.18 0.13 32 1019.3
20260507190551 13 352 8.0 22.5 0.00 0.18 0.13 34 1019.2
20260507190058 13 252 11.3 22.5 0.00 0.18 0.13 33 1019.3
20260507185549 13 291 11.3 20.9 0.00 0.18 0.13 31 1019.4
20260507185048 14 72 4.8 16.1 0.00 0.18 0.13 33 1019.4
20260507184556 14 225 4.8 16.1 0.00 0.18 0.13 35 1019.4
20260507184048 14 39 6.4 16.1 0.00 0.18 0.13 31 1019.4
20260507183546 14 280 4.8 17.7 0.00 0.18 0.13 35 1019.5
20260507183051 13 21 4.8 22.5 0.00 0.18 0.13 34 1019.4
20260507182548 13 313 11.3 22.5 0.00 0.18 0.13 32 1019.5
20260507182051 13 311 4.8 12.9 0.00 0.18 0.13 33 1019.4
20260507181552 13 10 1.6 17.7 0.00 0.18 0.13 33 1019.3
20260507181048 13 0 1.6 17.7 0.00 0.18 0.13 35 1019.5
20260507180549 13 186 8.0 17.7 0.00 0.18 0.13 32 1019.4
20260507180052 13 194 3.2 14.5 0.00 0.18 0.13 31 1019.4
20260507175550 13 0 8.0 17.7 0.00 0.20 0.13 34 1019.3
20260507175048 13 283 9.7 20.9 0.00 0.20 0.13 34 1019.3
20260507174558 13 198 8.0 20.9 0.00 0.20 0.13 32 1019.3
20260507174049 13 169 11.3 20.9 0.00 0.20 0.13 32 1019.4
20260507173548 13 185 8.0 20.9 0.00 0.20 0.13 33 1019.7
20260507173051 13 254 9.7 20.9 0.00 0.20 0.13 32 1019.7
20260507172548 12 205 8.0 20.9 0.00 0.20 0.13 35 1019.8
20260507172048 12 194 8.0 22.5 0.00 0.20 0.13 35 1020.1
20260507171600 12 212 12.9 22.5 0.00 0.20 0.13 34 1020.1
20260507171045 12 213 12.9 24.1 0.00 0.20 0.13 35 1020.1
20260507170545 12 186 14.5 29.0 0.00 0.20 0.13 35 1020.1
20260507165544 12 271 14.5 27.4 0.00 0.20 0.13 38 1020.1
20260507165044 11 263 12.9 32.2 0.00 0.20 0.13 43 1020.1
20260507164601 11 243 16.1 33.8 0.00 0.20 0.13 40 1020.2
20260507164049 11 211 19.3 33.8 0.00 0.20 0.13 41 1020.2
20260507163545 10 207 16.1 30.6 0.00 0.20 0.13 43 1020.2
20260507163055 10 246 16.1 27.4 0.00 0.20 0.13 43 1020.3
20260507162548 10 208 11.3 25.7 0.00 0.20 0.13 44 1020.5
20260507162048 10 250 14.5 29.0 0.00 0.20 0.13 44 1020.7
20260507161555 10 229 12.9 29.0 0.00 0.20 0.13 43 1020.8
20260507161045 11 262 16.1 29.0 0.00 0.20 0.13 40 1020.8
20260507160549 11 265 9.7 25.7 0.00 0.20 0.13 45 1020.7
20260507160058 10 225 16.1 29.0 0.03 0.20 0.13 42 1020.6
20260507155547 10 238 16.1 29.0 0.03 0.20 0.13 43 1020.6
20260507155050 10 267 16.1 30.6 0.03 0.20 0.13 44 1020.6
20260507154559 9 231 12.9 33.8 0.03 0.20 0.13 45 1020.6
20260507154044 9 211 16.1 33.8 0.03 0.20 0.13 45 1020.7
20260507153545 9 238 14.5 41.8 0.03 0.20 0.13 45 1020.8
20260507153059 8 267 20.9 43.5 0.05 0.20 0.13 44 1020.9
20260507152545 8 248 19.3 45.1 0.05 0.20 0.13 44 1020.8
20260507152049 8 271 22.5 45.1 0.08 0.20 0.13 43 1020.6
20260507151552 8 234 22.5 40.2 0.08 0.20 0.13 43 1020.8
20260507151049 8 254 22.5 40.2 0.10 0.20 0.13 44 1020.7
20260507150549 8 272 20.9 33.8 0.10 0.20 0.13 45 1020.7
20260507150055 7 209 17.7 41.8 0.08 0.18 0.10 46 1020.8
20260507145548 7 235 20.9 41.8 0.08 0.18 0.10 45 1020.6
20260507145050 7 246 24.1 40.2 0.10 0.18 0.10 45 1020.6
20260507144553 7 257 22.5 41.8 0.10 0.18 0.10 46 1020.5
20260507144048 7 251 22.5 41.8 0.10 0.18 0.10 44 1020.5
20260507143548 7 255 20.9 40.2 0.10 0.18 0.10 43 1020.8
20260507143058 7 241 17.7 40.2 0.08 0.15 0.08 45 1020.7
20260507142548 6 257 19.3 40.2 0.08 0.15 0.08 45 1020.7
20260507142049 6 234 22.5 38.6 0.05 0.13 0.05 46 1020.6
20260507141555 6 238 22.5 38.6 0.05 0.13 0.05 45 1020.5
20260507141048 6 281 22.5 40.2 0.03 0.10 0.03 46 1020.5
20260507140549 6 271 24.1 45.1 0.03 0.10 0.03 46 1020.3
20260507140056 5 225 24.1 45.1 0.03 0.10 0.03 46 1020.6
20260507135548 5 253 25.7 45.1 0.03 0.10 0.03 46 1020.5
20260507135049 5 280 25.7 46.7 0.00 0.08 0.00 46 1020.5
20260507134554 5 249 27.4 46.7 0.00 0.08 0.00 46 1020.5
20260507134049 5 254 27.4 46.7 0.00 0.08 0.00 45 1020.1
20260507133548 5 265 24.1 48.3 0.00 0.08 0.00 46 1020.4
20260507133106 4 252 30.6 48.3 0.00 0.08 0.00 46 1020.1
20260507132547 5 175 22.5 41.8 0.00 0.08 0.00 45 1020.1
20260507132044 4 213 24.1 41.8 0.00 0.08 0.00 46 1020.2
20260507131553 4 252 27.4 41.8 0.00 0.08 0.00 44 1020.2
20260507131049 4 250 22.5 49.9 0.00 0.08 0.00 45 1020.2
20260507130544 3 244 19.3 49.9 0.00 0.08 0.00 46 1020.1
20260507130106 3 246 22.5 48.3 0.00 0.08 0.00 45 1019.9
20260507125548 3 214 30.6 48.3 0.00 0.08 0.00 45 1019.9
20260507125044 3 272 27.4 46.7 0.00 0.08 0.00 44 1019.8
20260507124551 3 242 25.7 46.7 0.00 0.08 0.00 44 1019.9
20260507124048 3 257 25.7 43.5 0.00 0.08 0.00 44 1019.8
20260507123548 3 228 24.1 48.3 0.00 0.08 0.00 44 1019.9
20260507123053 3 240 25.7 48.3 0.00 0.08 0.00 44 1019.8
20260507122548 3 221 24.1 43.5 0.00 0.08 0.00 44 1019.8
20260507122048 3 268 24.1 43.5 0.00 0.08 0.00 44 1019.8
20260507121606 3 244 19.3 38.6 0.00 0.08 0.00 46 1019.8
20260507121047 3 229 17.7 37.0 0.00 0.08 0.00 47 1019.8
20260507120547 2 235 20.9 37.0 0.00 0.08 0.00 48 1019.8
20260507120100 2 259 20.9 37.0 0.00 0.08 0.00 50 1019.8
20260507115545 2 236 22.5 35.4 0.00 0.08 0.00 51 1019.7
20260507115051 2 238 19.3 32.2 0.00 0.08 0.00 49 1019.6
20260507114633 2 246 17.7 32.2 0.00 0.08 0.00 49 1019.7
20260507114044 2 246 19.3 40.2 0.00 0.08 0.00 50 1019.7
20260507113548 2 215 17.7 40.2 0.00 0.08 0.00 49 1019.7
20260507113052 2 249 20.9 40.2 0.00 0.08 0.00 48 1019.9
20260507112549 2 239 20.9 37.0 0.00 0.08 0.00 49 1019.8
20260507112045 2 259 17.7 35.4 0.00 0.08 0.00 49 1020.0
20260507111555 2 275 16.1 35.4 0.00 0.08 0.00 48 1019.8
20260507111049 2 224 16.1 38.6 0.00 0.08 0.00 49 1019.8
20260507110548 2 273 19.3 38.6 0.00 0.08 0.00 48 1019.9
20260507110055 1 234 22.5 33.8 0.00 0.08 0.00 49 1020.0
20260507105547 1 227 20.9 37.0 0.00 0.08 0.00 49 1019.9
20260507105047 2 277 19.3 37.0 0.00 0.08 0.00 48 1019.9
20260507104551 2 247 17.7 37.0 0.00 0.08 0.00 46 1019.8
20260507104048 2 253 14.5 33.8 0.00 0.08 0.00 45 1019.7
20260507103548 2 258 17.7 33.8 0.00 0.08 0.00 46 1019.7
20260507103054 2 240 17.7 32.2 0.00 0.08 0.00 47 1019.7
20260507102547 2 275 19.3 37.0 0.00 0.08 0.00 46 1019.6
20260507102048 2 242 19.3 41.8 0.00 0.08 0.00 45 1019.8
20260507101603 2 242 24.1 43.5 0.00 0.08 0.00 45 1019.9
20260507101048 2 248 24.1 43.5 0.00 0.08 0.00 46 1019.9
20260507100549 2 263 25.7 43.5 0.00 0.08 0.00 46 1019.9
20260507100057 2 236 22.5 41.8 0.00 0.08 0.00 45 1020.0
20260507095548 2 250 20.9 38.6 0.00 0.08 0.00 45 1020.0
20260507095047 2 259 20.9 41.8 0.00 0.08 0.00 44 1019.9
20260507094552 2 288 25.7 41.8 0.00 0.08 0.00 42 1019.9
20260507094047 2 259 20.9 40.2 0.00 0.08 0.00 43 1019.8
20260507093547 2 268 22.5 40.2 0.00 0.08 0.00 43 1019.8
20260507093051 2 248 20.9 38.6 0.00 0.08 0.00 43 1019.9
20260507092548 2 253 22.5 38.6 0.00 0.08 0.00 45 1019.9
20260507092051 2 288 24.1 40.2 0.00 0.08 0.00 45 1019.9
20260507091555 2 290 22.5 40.2 0.00 0.08 0.00 44 1020.0
20260507091047 2 271 20.9 41.8 0.00 0.08 0.00 45 1020.0
20260507090548 2 242 22.5 41.8 0.00 0.08 0.00 45 1020.1
20260507090100 2 273 27.4 40.2 0.00 0.08 0.00 46 1020.1
20260507085548 2 258 22.5 45.1 0.00 0.08 0.00 46 1020.2
20260507085048 2 275 25.7 45.1 0.00 0.08 0.00 48 1020.1
20260507084558 2 277 27.4 46.7 0.00 0.08 0.00 47 1020.3
20260507084052 2 283 30.6 46.7 0.00 0.08 0.00 47 1020.3
20260507083548 2 284 22.5 41.8 0.00 0.08 0.00 47 1020.4
20260507083053 2 238 27.4 41.8 0.00 0.08 0.00 47 1020.2
20260507082547 2 263 24.1 41.8 0.00 0.08 0.00 47 1020.3
20260507082047 1 269 20.9 37.0 0.00 0.08 0.00 50 1020.4
20260507081553 1 305 19.3 43.5 0.00 0.08 0.00 51 1020.3
20260507081047 1 274 24.1 43.5 0.00 0.08 0.00 51 1020.4
20260507080731 1 298 22.5 43.5 0.00 0.08 0.00 53 1020.5
20260507080548 1 298 22.5 43.5 0.00 0.08 0.00 53 1020.5
20260507080120 1 275 22.5 43.5 0.00 0.08 0.00 54 1020.3
20260507075547 1 261 20.9 40.2 0.00 0.08 0.00 52 1020.4
20260507075047 1 260 24.1 43.5 0.00 0.08 0.00 52 1020.4
20260507074558 1 266 27.4 43.5 0.00 0.08 0.00 51 1020.4
20260507074122 1 261 20.9 33.8 0.00 0.08 0.00 52 1020.3
20260507073548 1 272 16.1 27.4 0.00 0.08 0.00 53 1020.5
20260507073104 1 309 16.1 27.4 0.00 0.08 0.00 52 1020.6
20260507072550 1 238 19.3 29.0 0.00 0.08 0.00 51 1020.7
20260507072047 1 269 17.7 29.0 0.00 0.08 0.00 55 1020.6
20260507071640 1 311 16.1 27.4 0.00 0.08 0.00 57 1020.6
20260507071047 1 277 17.7 25.7 0.00 0.08 0.00 56 1020.5
20260507070547 1 296 17.7 32.2 0.00 0.08 0.00 57 1020.5
20260507070055 1 281 17.7 32.2 0.00 0.08 0.00 58 1020.7
20260507065548 1 273 19.3 32.2 0.00 0.08 0.00 58 1020.6
20260507065047 1 284 14.5 29.0 0.00 0.08 0.00 62 1020.7
20260507064549 0 286 17.7 29.0 0.00 0.08 0.00 63 1020.7
20260507064048 0 295 16.1 25.7 0.00 0.08 0.00 64 1020.8
20260507063548 0 252 17.7 27.4 0.00 0.08 0.00 67 1021.0
20260507063056 0 294 17.7 29.0 0.00 0.08 0.00 69 1020.9
20260507062548 0 288 14.5 29.0 0.00 0.08 0.00 72 1020.9
20260507062048 0 288 12.9 27.4 0.00 0.08 0.00 76 1021.0
20260507061553 -1 266 9.7 22.5 0.00 0.08 0.00 82 1020.9
20260507061047 -2 251 4.8 14.5 0.00 0.08 0.00 86 1021.0
20260507060549 -2 240 3.2 14.5 0.00 0.08 0.00 88 1020.8
20260507060053 -2 0 1.6 14.5 0.00 0.08 0.00 89 1020.8
20260507055549 -2 207 1.6 9.7 0.00 0.08 0.08 90 1020.8
20260507055048 -3 0 1.6 6.4 0.00 0.08 0.08 90 1020.7
20260507054548 -3 278 0.0 3.2 0.00 0.08 0.08 90 1020.7
20260507054047 -3 0 0.0 3.2 0.00 0.08 0.08 89 1020.7
20260507053548 -3 0 0.0 1.6 0.00 0.08 0.08 89 1020.7
20260507053050 -3 0 0.0 4.8 0.00 0.08 0.08 89 1020.6
20260507052547 -3 0 0.0 4.8 0.00 0.08 0.08 89 1020.5
20260507052047 -3 316 0.0 4.8 0.00 0.08 0.08 89 1020.5
20260507051550 -3 0 0.0 4.8 0.00 0.08 0.08 89 1020.5
20260507051048 -3 314 0.0 4.8 0.00 0.08 0.08 89 1020.5
20260507050549 -3 70 0.0 4.8 0.00 0.08 0.08 89 1020.4
20260507050054 -3 0 0.0 0.0 0.00 0.08 0.08 89 1020.3
20260507045548 -3 0 0.0 3.2 0.00 0.08 0.08 89 1020.4
20260507045048 -3 0 0.0 4.8 0.00 0.08 0.08 89 1020.3
20260507044552 -3 0 0.0 4.8 0.00 0.08 0.08 89 1020.5
20260507044047 -3 290 1.6 4.8 0.00 0.08 0.08 88 1020.5
20260507043548 -3 251 0.0 3.2 0.00 0.08 0.08 88 1020.5
20260507043051 -3 0 0.0 0.0 0.00 0.08 0.08 88 1020.5
20260507042547 -3 0 0.0 1.6 0.00 0.08 0.08 88 1020.5
20260507042047 -3 0 0.0 6.4 0.00 0.08 0.08 87 1020.5
20260507041554 -3 0 0.0 6.4 0.00 0.08 0.08 87 1020.5
20260507041052 -2 0 0.0 0.0 0.00 0.08 0.08 87 1020.6
20260507040549 -2 0 0.0 3.2 0.00 0.08 0.08 87 1020.6
20260507040057 -2 0 0.0 3.2 0.00 0.08 0.08 87 1020.5
20260507035548 -2 193 0.0 3.2 0.00 0.08 0.08 87 1020.5
20260507035049 -2 0 0.0 3.2 0.00 0.08 0.08 87 1020.4
20260507034555 -2 0 0.0 3.2 0.00 0.08 0.08 87 1020.4
20260507034048 -2 0 0.0 3.2 0.00 0.08 0.08 87 1020.4
20260507033548 -2 0 0.0 3.2 0.00 0.08 0.08 86 1020.5
20260507033052 -2 0 0.0 0.0 0.00 0.08 0.08 86 1020.4
20260507032549 -2 0 0.0 0.0 0.00 0.08 0.08 86 1020.4
20260507032046 -2 0 0.0 0.0 0.00 0.08 0.08 85 1020.4
20260507031557 -2 0 0.0 0.0 0.00 0.08 0.08 85 1020.3
20260507031048 -2 0 0.0 0.0 0.00 0.08 0.08 85 1020.2
20260507030547 -2 0 0.0 0.0 0.00 0.08 0.08 85 1020.3